sat.trackr.live / text

‹ back to catalog

STARLINK-37482

NORAD 68850 · 2026-094M

PAYLOAD ACTIVE UNKNOWN

§ Identity

Operator
Country
US
Launch date
2026-04-26
Launch site
AFWTR
Launch vehicle
Mass (kg)
RCS (m²)

Purposes: comms

External: N2YO · Heavens-Above · Gunter

§ Orbital elements

Epoch: 2026-09-20T00:23:22.254720Z

Period
93.91 min
Inclination
97.2846°
Eccentricity
0.0002005
Mean motion
15.33454347 rev/d
Perigee alt
464.1 km
Apogee alt
466.9 km
Semi-major
6,843.7 km
B*
3.7617e-4
RAAN
276.1447°
Arg perigee
83.5826°
Mean anomaly
276.5645°
Rev number
2,258

§ Raw data

STARLINK-374821 68850U 26094M   26263.01622980  .00012093  00000+0  37617-3 0  99962 68850  97.2846 276.1447 0002005  83.5826 276.5645 15.33454347 22586

JSON: /api/v1/satellites/68850 · /tle

For live sub-satellite position, see the globe view (requires WebGL).

§ Visibility from observer

Set your observer location to see the next 7 days of passes ≥ 10°. The values pass through the URL so the page stays shareable.

No JS? Fill the form by hand. The geolocation button needs JavaScript.